| time (UTC) | temp F | wind direction | speed MPH | gust MPH | rain 1hr in | rain 24hr in | rain mn in | humidity % | barometer mb |
| 20260505003040 | 68 | 0 | 0.0 | 0.0 | 0.00 | 0.00 | 0.00 | 56 | 1014.6 |
| 20260505001547 | 69 | 0 | 0.0 | 0.0 | 0.00 | 0.00 | 0.00 | 55 | 1014.5 |
| 20260505000040 | 70 | 0 | 0.0 | 0.0 | 0.00 | 0.00 | 0.00 | 55 | 1014.4 |
| 20260504234604 | 70 | 0 | 0.0 | 0.0 | 0.00 | 0.00 | 0.00 | 53 | 1014.4 |
| 20260504233050 | 72 | 0 | 0.0 | 0.0 | 0.00 | 0.00 | 0.00 | 50 | 1014.4 |
| 20260504231542 | 72 | 0 | 0.0 | 0.0 | 0.00 | 0.00 | 0.00 | 49 | 1014.4 |
| 20260504230042 | 73 | 0 | 0.0 | 0.0 | 0.00 | 0.00 | 0.00 | 48 | 1014.6 |
| 20260504224555 | 73 | 0 | 0.0 | 2.0 | 0.00 | 0.00 | 0.00 | 44 | 1014.5 |
| 20260504223047 | 74 | 0 | 0.0 | 1.0 | 0.00 | 0.00 | 0.00 | 45 | 1014.6 |
| 20260504221546 | 74 | 0 | 0.0 | 1.0 | 0.00 | 0.00 | 0.00 | 42 | 1014.7 |
| 20260504220044 | 74 | 0 | 0.0 | 2.0 | 0.00 | 0.00 | 0.00 | 46 | 1014.6 |
| 20260504214540 | 74 | 0 | 0.0 | 2.0 | 0.00 | 0.00 | 0.00 | 44 | 1014.5 |
| 20260504213055 | 74 | 5 | 0.0 | 2.0 | 0.00 | 0.00 | 0.00 | 41 | 1014.5 |
| 20260504211538 | 75 | 113 | 0.0 | 3.0 | 0.00 | 0.00 | 0.00 | 41 | 1014.5 |
| 20260504210049 | 75 | 0 | 0.0 | 2.0 | 0.00 | 0.00 | 0.00 | 42 | 1014.5 |
| 20260504204539 | 75 | 0 | 0.0 | 2.0 | 0.00 | 0.00 | 0.00 | 42 | 1014.9 |
| 20260504203049 | 75 | 0 | 0.0 | 2.0 | 0.00 | 0.00 | 0.00 | 42 | 1014.9 |
| 20260504201540 | 75 | 103 | 0.0 | 2.0 | 0.00 | 0.00 | 0.00 | 43 | 1015.0 |
| 20260504200036 | 75 | 0 | 0.0 | 2.0 | 0.00 | 0.00 | 0.00 | 36 | 1015.2 |
| 20260504194557 | 75 | 355 | 0.0 | 3.0 | 0.00 | 0.00 | 0.00 | 38 | 1015.3 |
| 20260504193052 | 75 | 0 | 0.0 | 3.0 | 0.00 | 0.00 | 0.00 | 35 | 1015.5 |
| 20260504191543 | 75 | 63 | 1.0 | 3.0 | 0.00 | 0.00 | 0.00 | 37 | 1015.9 |
| 20260504190105 | 76 | 0 | 0.0 | 5.0 | 0.00 | 0.00 | 0.00 | 39 | 1016.0 |
| 20260504184536 | 75 | 45 | 0.0 | 2.0 | 0.00 | 0.00 | 0.00 | 40 | 1016.2 |
| 20260504183045 | 76 | 0 | 0.0 | 4.0 | 0.00 | 0.00 | 0.00 | 41 | 1016.5 |
| 20260504181545 | 76 | 0 | 0.0 | 2.0 | 0.00 | 0.00 | 0.00 | 39 | 1016.6 |
| 20260504180044 | 76 | 0 | 0.0 | 2.0 | 0.00 | 0.00 | 0.00 | 39 | 1016.7 |
| 20260504174536 | 77 | 320 | 0.0 | 2.0 | 0.00 | 0.00 | 0.00 | 41 | 1016.9 |
| 20260504173051 | 76 | 80 | 0.0 | 1.0 | 0.00 | 0.00 | 0.00 | 41 | 1017.2 |
| 20260504171545 | 75 | 0 | 0.0 | 1.0 | 0.00 | 0.00 | 0.00 | 40 | 1017.4 |
| 20260504081546 | 45 | 0 | 0.0 | 0.0 | 0.00 | 0.00 | 0.00 | 91 | 1018.2 |
| 20260504044558 | 50 | 0 | 0.0 | 0.0 | 0.00 | 0.00 | 0.00 | 81 | 1019.1 |
| 20260504043039 | 50 | 0 | 0.0 | 0.0 | 0.00 | 0.00 | 0.00 | 80 | 1019.0 |
| 20260504041546 | 50 | 0 | 0.0 | 0.0 | 0.00 | 0.00 | 0.00 | 78 | 1019.0 |
| 20260504040047 | 51 | 0 | 0.0 | 0.0 | 0.00 | 0.00 | 0.00 | 77 | 1019.0 |
| 20260504034550 | 52 | 0 | 0.0 | 0.0 | 0.00 | 0.00 | 0.00 | 77 | 1018.9 |
| 20260504033051 | 52 | 0 | 0.0 | 0.0 | 0.00 | 0.00 | 0.00 | 74 | 1019.0 |
| 20260504031547 | 53 | 0 | 0.0 | 0.0 | 0.00 | 0.00 | 0.00 | 72 | 1019.1 |
| 20260504030047 | 53 | 0 | 0.0 | 0.0 | 0.00 | 0.00 | 0.00 | 71 | 1018.9 |
| 20260504024546 | 54 | 0 | 0.0 | 0.0 | 0.00 | 0.00 | 0.00 | 71 | 1018.9 |
| 20260504023041 | 54 | 0 | 0.0 | 0.0 | 0.00 | 0.00 | 0.00 | 68 | 1018.7 |
| 20260504021538 | 55 | 0 | 0.0 | 0.0 | 0.00 | 0.00 | 0.00 | 67 | 1018.6 |
| 20260504020036 | 56 | 0 | 0.0 | 0.0 | 0.00 | 0.00 | 0.00 | 65 | 1018.4 |
| 20260504014547 | 57 | 0 | 0.0 | 0.0 | 0.00 | 0.00 | 0.00 | 65 | 1018.2 |
| 20260504013046 | 57 | 0 | 0.0 | 0.0 | 0.00 | 0.00 | 0.00 | 62 | 1018.0 |
| 20260504011540 | 59 | 0 | 0.0 | 0.0 | 0.00 | 0.00 | 0.00 | 60 | 1017.7 |
| 20260504010048 | 60 | 0 | 0.0 | 0.0 | 0.00 | 0.00 | 0.00 | 57 | 1017.5 |
| 20260504004541 | 61 | 0 | 0.0 | 0.0 | 0.00 | 0.00 | 0.00 | 57 | 1017.4 |